Home > Weather > Kitzbühel > Past weeks

Flag for Austria Weather for the Past 2 Weeks in Kitzbühel, Tyrol, Austria

Now
56 °F

Cool.


Feels Like: 56 °F
Forecast: 35 / 49 °F
Wind: 3 mph from Southwest

Location: Kufstein

Current Time: May 3, 2016 at 1:50:40 PM

Latest Report: May 3, 2016 at 1:00 PM


Visibility: N/A

Pressure: 30.06 "Hg (27.49 "Hg at 750m altitude)

Humidity: 72%

Dew Point: 47 °F

Location of KitzbühelLocation

Historic Weather in Kitzbühel — Graph

°F

Kitzbühel Temperature Yesterday

Maximum temperature yesterday: 50 °F (at 7:00 PM)
Minimum temperature yesterday: 46 °F (at 6:00 AM)
Average temperature yesterday: 48 °F

High & Low Weather Summary for the Past Weeks

 TemperatureHumidityPressure
High68 °F (Apr 22, 4:00 PM)96% (Apr 19, 2:00 AM)30.39 "Hg (Apr 19, 2:00 AM)
Low33 °F (Apr 26, 4:00 AM)28% (Apr 29, 4:00 PM)29.61 "Hg (Apr 26, 3:00 PM)
Average49 °F70%30.01 "Hg
* Reported Apr 18 12:00 Noon — May 3 12:00 Noon, Kitzbühel, Weather by CustomWeather, © 2016

Note: Actual official high and low records may vary slightly from our data, if they occured in-between our weather recording intervals... More about our weather records

Advertising

Kitzbühel Weather History for the Previous 24 Hours

Scroll right to see more
 ConditionsComfort  
Time TempWeatherWind HumidityBarometerVisibility
12:00 PM
Tue, May 3
53 °FCool.3 mph82%30.10 "HgN/A
11:00 AM50 °FCool.2 mph85%30.13 "HgN/A
9:00 AM47 °FCool.1 mph89%30.14 "HgN/A
8:00 AM47 °FCool.2 mph90%30.14 "HgN/A
7:00 AM47 °FCool.2 mph89%30.13 "HgN/A
6:00 AM47 °FCool.2 mph87%30.12 "HgN/A
3:00 AM47 °FCool.2 mph88%30.13 "HgN/A
2:00 AM47 °FCool.2 mph92%30.14 "HgN/A
1:00 AM47 °FCool.3 mph93%30.15 "HgN/A
10:00 PM
Mon, May 2
48 °FCool.1 mph90%30.16 "HgN/A
9:00 PM49 °FCool.1 mph89%30.15 "HgN/A
8:00 PM50 °FCool.1 mph85%30.14 "HgN/A
7:00 PM50 °FCool.2 mph82%30.14 "HgN/A
6:00 PM50 °FCool.2 mph83%30.14 "HgN/A
5:00 PM50 °FCool.No wind84%30.16 "HgN/A
4:00 PM50 °FCool.1 mph82%30.16 "HgN/A
3:00 PM50 °FCool.1 mph80%30.16 "HgN/A
2:00 PM49 °FCool.2 mph80%30.17 "HgN/A
1:00 PM48 °FCool.2 mph85%30.17 "HgN/A
Weather by CustomWeather, © 2016

See weather overviewHow to use our weather pages